Houston / Southwest Airport, TX

7:26 PM CDT on April 25, 2018 (GMT -0500)
Houston-Southwest

Weather History for KAXH - March, 2013

Change the Weather History Date:

Friday, March 15, 2013

  Actual Average (KHOU) Record (KHOU)
Temperature  
Mean Temperature 60 °F -  
Max Temperature 78 °F 69 °F 89 °F (2008)
Min Temperature 42 °F 52 °F 32 °F (1999)
Degree Days  
Heating Degree Days 5    
Growing Degree Days 10 (Base 50)    
Moisture  
Dew Point 50 °F    
Average Humidity 74    
Maximum Humidity 100    
Minimum Humidity 36    
Precipitation  
Precipitation 0.00 in - - ()
Sea Level Pressure  
Sea Level Pressure 30.19 in    
Wind  
Wind Speed - (North)    
Max Wind Speed -    
Max Gust Speed -    
Visibility 8 miles    
Events Fog    
Averages and records for this station are not official NWS values.
T = Trace of Precipitation, MM = Missing Value Source: NWS Daily Summary

Daily Weather History Graph

Daily Weather History Graph

Search for Another Location

Airport or City:

Astronomy

Mar. 15, 2013 Rise Set
Actual Time 7:31 AM CDT 7:30 PM CDT
Civil Twilight 7:07 AM CDT 7:54 PM CDT
Nautical Twilight 6:40 AM CDT 8:21 PM CDT
Astronomical Twilight 6:12 AM CDT 8:49 PM CDT
Moon 9:42 AM CDT (3/15) 11:23 PM CDT (3/15)
Length of Visible Light 12h 46m
Length of Day
11h 59m
Waxing Crescent, 15% of the Moon is Illuminated
Mar 15
Waxing Crescent
Mar 19
First Quarter
Mar 27
Full
Apr 2
Last Quarter
Apr 10
New

Hourly Weather History & Observations

Time (CDT) Temp. Dew Point Humidity Pressure Visibility Wind Dir Wind Speed Gust Speed Precip Events Conditions
12:15 AM 51.3 °F 46.9 °F 85% 30.30 in 10.0 mi North - - N/A   Clear
12:35 AM 50.5 °F 46.9 °F 87% 30.29 in 10.0 mi North - - N/A   Clear
12:55 AM 50.2 °F 47.3 °F 90% 30.29 in 10.0 mi North - - N/A   Clear
1:15 AM 49.8 °F 47.5 °F 92% 30.29 in 10.0 mi North - - N/A   Clear
1:35 AM 49.8 °F 47.7 °F 92% 30.28 in 10.0 mi North - - N/A   Clear
1:55 AM 47.7 °F 46.4 °F 95% 30.28 in 10.0 mi North - - N/A   Clear
2:15 AM 48.9 °F 48.2 °F 97% 30.28 in 10.0 mi North - - N/A   Clear
2:35 AM 48.9 °F 47.3 °F 94% 30.27 in 10.0 mi North - - N/A   Clear
2:55 AM 48.6 °F 47.8 °F 97% 30.27 in 10.0 mi North - - N/A   Clear
3:15 AM 46.6 °F 46.2 °F 99% 30.26 in 5.0 mi North - - N/A   Clear
3:35 AM 45.9 °F 45.9 °F 100% 30.25 in 0.8 mi North - - N/A   Mist
4:15 AM 46.9 °F 46.9 °F 100% 30.24 in 1.5 mi North - - N/A   Mist
4:35 AM 43.3 °F 43.2 °F 99% 30.23 in 1.0 mi North - - N/A   Mist
4:55 AM 45.7 °F 45.7 °F 100% 30.24 in 10.0 mi North - - N/A   Clear
5:15 AM 46.6 °F 46.6 °F 100% 30.23 in 10.0 mi North - - N/A   Clear
5:35 AM 45.5 °F 45.5 °F 100% 30.23 in 10.0 mi North - - N/A   Clear
5:55 AM 45.9 °F 45.9 °F 100% 30.23 in 10.0 mi North - - N/A   Clear
6:15 AM 45.1 °F 45.1 °F 100% 30.23 in 5.0 mi North - - N/A   Clear
6:35 AM 43.0 °F 42.8 °F 99% 30.24 in 0.2 mi North - - N/A Fog Fog
6:55 AM 43.3 °F 43.3 °F 100% 30.24 in 0.5 mi North - - N/A Fog Fog
7:15 AM 43.5 °F 43.5 °F 100% 30.24 in 0.5 mi North - - N/A Fog Fog
7:35 AM 42.3 °F 42.3 °F 100% 30.24 in 0.2 mi North - - N/A Fog Fog
7:55 AM 43.9 °F 43.9 °F 100% 30.24 in 0.2 mi North - - N/A Fog Fog
8:15 AM 44.1 °F 44.1 °F 100% 30.24 in 0.2 mi North - - N/A Fog Fog
8:35 AM 49.5 °F 49.5 °F 100% 30.25 in 0.2 mi North - - N/A Fog Fog
8:55 AM 54.3 °F 54.3 °F 100% 30.25 in 5.0 mi North - - N/A   Scattered Clouds
9:15 AM 57.9 °F 57.9 °F 100% 30.25 in 10.0 mi North - - N/A   Clear
9:35 AM 62.1 °F 58.8 °F 89% 30.25 in 10.0 mi North - - N/A   Clear
9:55 AM 64.9 °F 57.2 °F 76% 30.25 in 10.0 mi North - - N/A   Clear
10:55 AM 70.5 °F 57.2 °F 63% 30.25 in 10.0 mi North - - N/A   Clear
11:15 AM 71.4 °F 56.5 °F 59% 30.25 in 10.0 mi North - - N/A   Clear
11:35 AM 72.5 °F 54.9 °F 54% 30.24 in 10.0 mi North - - N/A   Clear
11:55 AM 74.3 °F 54.7 °F 50% 30.24 in 10.0 mi North - - N/A   Clear
12:15 PM 74.5 °F 52.3 °F 46% 30.24 in 10.0 mi North - - N/A   Clear
12:35 PM 75.9 °F 53.4 °F 45% 30.23 in 10.0 mi North - - N/A   Clear
12:55 PM 76.3 °F 52.0 °F 43% 30.22 in 10.0 mi North - - N/A   Clear
1:15 PM 76.3 °F 52.5 °F 43% 30.21 in 10.0 mi North - - N/A   Clear
1:35 PM 77.4 °F 49.1 °F 37% 30.20 in 10.0 mi North - - N/A   Scattered Clouds
1:55 PM 77.4 °F 48.6 °F 36% 30.19 in 10.0 mi North - - N/A   Scattered Clouds
2:15 PM 78.6 °F 50.7 °F 38% 30.17 in 10.0 mi North - - N/A   Scattered Clouds
2:35 PM 77.4 °F 50.4 °F 39% 30.17 in 10.0 mi North - - N/A   Scattered Clouds
2:55 PM 78.8 °F 51.3 °F 38% 30.16 in 10.0 mi North - - N/A   Scattered Clouds
3:15 PM 77.2 °F 50.5 °F 39% 30.15 in 10.0 mi North - - N/A   Scattered Clouds
3:35 PM 77.0 °F 50.4 °F 39% 30.14 in 10.0 mi North - - N/A   Scattered Clouds
3:55 PM 77.5 °F 49.5 °F 37% 30.13 in 10.0 mi North - - N/A   Scattered Clouds
4:15 PM 77.0 °F 50.4 °F 39% 30.12 in 10.0 mi North - - N/A   Clear
4:35 PM 77.5 °F 49.5 °F 37% 30.11 in 10.0 mi North - - N/A   Clear
4:55 PM 76.6 °F 50.7 °F 40% 30.10 in 10.0 mi North - - N/A   Clear
5:15 PM 76.1 °F 51.3 °F 42% 30.10 in 10.0 mi North - - N/A   Clear
5:35 PM 75.2 °F 50.5 °F 42% 30.10 in 10.0 mi North - - N/A   Clear
5:55 PM 74.5 °F 51.8 °F 45% 30.09 in 10.0 mi North - - N/A   Scattered Clouds
6:15 PM 73.2 °F 51.4 °F 46% 30.10 in 10.0 mi North - - N/A   Clear
6:35 PM 72.1 °F 52.2 °F 49% 30.09 in 10.0 mi North - - N/A   Clear
6:55 PM 70.9 °F 51.6 °F 50% 30.10 in 10.0 mi North - - N/A   Clear
7:15 PM 69.4 °F 52.7 °F 55% 30.10 in 10.0 mi North - - N/A   Clear
7:35 PM 67.3 °F 53.6 °F 61% 30.10 in 10.0 mi North - - N/A   Clear
7:55 PM 65.3 °F 54.7 °F 68% 30.10 in 10.0 mi North - - N/A   Clear
8:15 PM 64.0 °F 54.9 °F 72% 30.10 in 10.0 mi North - - N/A   Clear
8:35 PM 63.5 °F 55.4 °F 75% 30.10 in 10.0 mi North - - N/A   Clear
8:55 PM 62.6 °F 55.2 °F 77% 30.11 in 10.0 mi North - - N/A   Clear
9:15 PM 60.8 °F 54.7 °F 80% 30.11 in 10.0 mi North - - N/A   Clear
9:35 PM 59.9 °F 54.5 °F 82% 30.11 in 10.0 mi North - - N/A   Clear
9:55 PM 59.2 °F 54.5 °F 84% 30.11 in 10.0 mi North - - N/A   Clear
10:15 PM 58.3 °F 54.5 °F 87% 30.11 in 10.0 mi North - - N/A   Clear
10:35 PM 57.7 °F 54.5 °F 89% 30.11 in 10.0 mi North - - N/A   Clear
10:55 PM 57.2 °F 54.7 °F 91% 30.11 in 10.0 mi North - - N/A   Clear
11:15 PM 56.1 °F 54.5 °F 94% 30.11 in 10.0 mi North - - N/A   Clear
11:35 PM 54.7 °F 53.6 °F 96% 30.10 in 10.0 mi North - - N/A   Clear
11:55 PM 53.6 °F 53.1 °F 98% 30.09 in 10.0 mi North - - N/A   Clear